Fort Rucker, AL

3:15 AM CST on February 13, 2016 (GMT -0600)
Fort Rucker / Ozark

Weather History for KLOR - August, 2013

Change the Weather History Date:

Friday, August 23, 2013

  Actual Average (KDHN) Record (KDHN)
Temperature  
Mean Temperature 78 °F 81 °F  
Max Temperature 87 °F 91 °F 99 °F (1938)
Min Temperature 68 °F 71 °F 64 °F (1943)
Cooling Degree Days 12 16  
Month to date cooling degree days 378  
Year to date cooling degree days 1759  
Since 1 June cooling degree days 1346  
Growing Degree Days 28 (Base 50)    
Moisture  
Dew Point 70 °F    
Average Humidity 87    
Maximum Humidity 100    
Minimum Humidity 57    
Precipitation  
Precipitation 0.01 in 0.15 in 3.65 in (2008)
Month to date precipitation 3.44  
Year to date precipitation 37.35  
Sea Level Pressure  
Sea Level Pressure 30.02 in    
Wind  
Wind Speed 1 mph (ESE)    
Max Wind Speed 7 mph    
Max Gust Speed -    
Visibility 7 miles    
Events Fog    
T = Trace of Precipitation, MM = Missing Value Source: NWS Daily Summary

Daily Weather History Graph

Daily Weather History Graph

Search for Another Location

Airport or City:

Trip Planner

Search our weather history database for the weather conditions in past years. The results will help you decide how hot, cold, wet, or windy it might be!

Date:

Astronomy

Aug. 23, 2013 Rise Set
Actual Time 6:13 AM CDT 7:16 PM CDT
Civil Twilight 5:48 AM CDT 7:42 PM CDT
Nautical Twilight 5:18 AM CDT 8:11 PM CDT
Astronomical Twilight 4:47 AM CDT 8:42 PM CDT
Moon 8:52 PM CDT (8/23) 8:53 AM CDT (8/23)
Length of Visible Light 13h 53m
Length of Day
13h 03m
Waning Gibbous, 91% of the Moon is Illuminated
Aug 23
Waning Gibbous
Aug 28
Last Quarter
Sep 5
New
Sep 12
First Quarter
Sep 19
Full

Hourly Weather History & Observations

Time (CDT) Temp. Heat Index Dew Point Humidity Pressure Visibility Wind Dir Wind Speed Gust Speed Precip Events Conditions
12:53 AM 70.0 °F - 69.1 °F 97% 30.03 in 7.0 mi Calm Calm - N/A   Clear
1:53 AM 69.1 °F - 68.0 °F 96% 30.03 in 10.0 mi Calm Calm - N/A   Clear
2:25 AM 69.8 °F - 69.8 °F 100% 30.03 in 6.0 mi NE 3.5 mph - N/A   Scattered Clouds
2:53 AM 69.1 °F - 69.1 °F 100% 30.02 in 1.2 mi Calm Calm - 0.01 in   Scattered Clouds
3:00 AM 69.8 °F - 69.8 °F 100% 30.03 in 1.0 mi Calm Calm - N/A   Mist
3:04 AM 69.8 °F - 69.8 °F 100% 30.03 in 3.0 mi Calm Calm - N/A   Mostly Cloudy
3:12 AM 69.8 °F - 69.8 °F 100% 30.03 in 1.8 mi Calm Calm - N/A   Mostly Cloudy
3:18 AM 69.8 °F - 69.8 °F 100% 30.03 in 3.0 mi Calm Calm - N/A   Mostly Cloudy
3:36 AM 69.8 °F - 69.8 °F 100% 30.02 in 1.8 mi Calm Calm - N/A   Mostly Cloudy
3:45 AM 69.8 °F - 69.8 °F 100% 30.02 in 0.2 mi Calm Calm - N/A Fog Fog
3:53 AM 70.0 °F - 69.1 °F 97% 30.02 in 0.2 mi Calm Calm - N/A Fog Fog
4:21 AM 69.8 °F - 68.0 °F 94% 30.02 in 1.0 mi Calm Calm - N/A   Mist
4:29 AM 68.0 °F - 68.0 °F 100% 30.02 in 2.5 mi Calm Calm - N/A   Scattered Clouds
4:43 AM 68.0 °F - 68.0 °F 100% 30.03 in 8.0 mi Calm Calm - N/A   Partly Cloudy
4:53 AM 68.0 °F - 68.0 °F 100% 30.02 in 10.0 mi Calm Calm - N/A   Clear
5:53 AM 68.0 °F - 66.9 °F 96% 30.02 in 9.0 mi Calm Calm - N/A   Clear
6:04 AM 68.0 °F - 66.2 °F 94% 30.02 in 10.0 mi Calm Calm - N/A   Scattered Clouds
6:53 AM 69.1 °F - 68.0 °F 96% 30.02 in 10.0 mi Calm Calm - N/A   Clear
7:53 AM 73.9 °F - 71.1 °F 91% 30.04 in 10.0 mi Calm Calm - N/A   Clear
8:53 AM 78.1 °F - 72.0 °F 81% 30.04 in 10.0 mi Variable 4.6 mph - N/A   Clear
9:53 AM 81.0 °F 84.9 °F 71.1 °F 72% 30.05 in 10.0 mi East 4.6 mph - N/A   Clear
10:53 AM 84.0 °F 89.0 °F 71.1 °F 65% 30.04 in - North - - N/A   Unknown
11:53 AM 84.9 °F 90.1 °F 71.1 °F 63% 30.04 in 10.0 mi Calm Calm - N/A   Partly Cloudy
12:53 PM 87.1 °F 92.0 °F 70.0 °F 57% 30.02 in 10.0 mi NNE 6.9 mph - N/A   Scattered Clouds
1:53 PM 86.0 °F 91.5 °F 71.1 °F 61% 30.01 in 10.0 mi Variable 3.5 mph - N/A   Partly Cloudy
2:53 PM 86.0 °F 90.1 °F 69.1 °F 57% 29.99 in 10.0 mi ESE 4.6 mph - N/A   Clear
3:53 PM 86.0 °F 92.2 °F 72.0 °F 63% 29.99 in 10.0 mi Calm Calm - N/A   Partly Cloudy
4:53 PM 84.9 °F 90.7 °F 72.0 °F 65% 29.97 in 10.0 mi South 3.5 mph - N/A   Scattered Clouds
5:53 PM 82.9 °F 89.4 °F 73.9 °F 74% 29.97 in 10.0 mi South 4.6 mph - N/A   Scattered Clouds
6:53 PM 77.0 °F - 71.1 °F 82% 29.98 in 10.0 mi Calm Calm - N/A   Clear
7:40 PM 75.2 °F - 71.6 °F 89% 30.00 in 10.0 mi Calm Calm - N/A   Partly Cloudy
7:53 PM 75.0 °F - 71.1 °F 87% 29.99 in 10.0 mi Calm Calm - N/A   Partly Cloudy
8:53 PM 73.9 °F - 71.1 °F 91% 30.01 in 10.0 mi Calm Calm - N/A   Clear
9:53 PM 73.0 °F - 71.1 °F 93% 30.04 in 10.0 mi Calm Calm - N/A   Clear
10:53 PM 73.0 °F - 71.1 °F 93% 30.04 in 10.0 mi Calm Calm - N/A   Clear
11:53 PM 72.0 °F - 70.0 °F 93% 30.04 in 10.0 mi Calm Calm - N/A   Clear